Regional Weather Roundup
Issued by NWS

Home | Current Version | Previous Version | Text Only | Print | Product List | Glossary On
Versions: 1 2 3 4 5 6 7 8 9 10 11 12 13 14 15 16 17 18 19 20 21 22 23 24 25 26 27 28 29 30 31 32 33 34 35 36 37 38 39 40 41 42 43 44 45 46 47 48 49 50
000
ASUS43 KDMX 230007
RWRIA

WEATHER ROUNDUP FOR IOWA
NATIONAL WEATHER SERVICE DES MOINES IA
600 PM CST SAT NOV 22 2014

NOTE: "FAIR" INDICATES FEW OR NO CLOUDS BELOW 12,000 FEET WITH NO
SIGNIFICANT WEATHER AND/OR OBSTRUCTIONS TO VISIBILITY.

* - THESE STATIONS ARE NOT NWS STATIONS...THUS NOT UNDER NWS
QUALITY CONTROL.  THEY ALSO DO NOT REPORT WEATHER SUCH
AS PRECIPITATION OR FOG.

IAZ001>003-012>014-020>022-031>034-043>046-230100-
   NORTHWEST IOWA

CITY           SKY/WX    TMP DP  RH WIND       PRES   REMARKS
CARROLL *      CLOUDY    52  48  87 S14       29.62S
CHEROKEE *     PTCLDY    39  38  95 S6        29.57S WCI  35
DENISON *      PTCLDY    50  50 100 S20       29.58F
LE MARS *      CLEAR     41  37  87 S9        29.55S
ORANGE CITY *  CLEAR     39  36  87 S9        29.54F FOG     WCI  33
SHELDON *      CLEAR     37  36  93 S15       29.53F WCI  28
SIOUX CITY     PTCLDY    38  35  89 E9        29.56F WCI  31
6HR MIN TEMP:  38; 6HR MAX TEMP:  47;

SPENCER        MOCLDY    39  36  89 S14       29.57S FOG     WCI  31
6HR MIN TEMP:  36; 6HR MAX TEMP:  41;

STORM LAKE *   CLEAR     39  37  93 SE13      29.59F FOG     WCI  32
$$

IAZ055>058-069>071-079>083-090>094-230100-
   SOUTHWEST IOWA

CITY           SKY/WX    TMP DP  RH WIND       PRES   REMARKS
ATLANTIC *     CLOUDY    52  52 100 S15G21    29.64F
AUDUBON *      MOCLDY    52  46  82 S15       29.65S
CLARINDA *     CLOUDY    55  55 100 S15       29.69F FOG
COUNCIL BLFS * CLOUDY    54  54 100 S17G25    29.60F
CRESTON *      CLOUDY    54  54 100 S20       29.69F FOG
HARLAN  *      CLOUDY    52  52 100 S16G22    29.65F
LAMONI         CLOUDY    54  53  97 S10       29.73F FOG
6HR MIN TEMP:  48; 6HR MAX TEMP:  54; 6HR PCP:  0.01;

RED OAK *      CLOUDY    54  54 100 S14       29.66F FOG
SHENANDOAH *   CLOUDY    54  54 100 S14       29.67F FOG
$$

IAZ047>049-059>061-072>074-084-230100-
   CENTRAL IOWA

CITY           SKY/WX    TMP DP  RH WIND       PRES   REMARKS
AMES           CLOUDY    51  48  89 S12       29.68F
6HR MIN TEMP:  46; 6HR MAX TEMP:  53;

ANKENY *       CLOUDY    50  50 100 S9        29.70F FOG
CHARITON *     CLOUDY    55  54  94 S16G25    29.73S FOG
DES MOINES     CLOUDY    52  50  93 S9        29.70F FOG
6HR MIN TEMP:  50; 6HR MAX TEMP:  56; 6HR PCP: TRACE;

GRINNELL*      CLOUDY    52  52 100 S12       29.72F FOG
KNOXVILLE *    CLOUDY    55  54  94 S15G21    29.71F
MARSHALLTOWN   CLOUDY    50  48  93 S12       29.70S
6HR MIN TEMP:  46; 6HR MAX TEMP:  54;

PELLA *        CLOUDY    54  54  99 S10       29.74F FOG
PERRY *        CLOUDY    52  50  93 S17       29.66F FOG
$$

IAZ004>006-015-016-023>025-035-036-230100-
   NORTH CENTRAL IOWA

CITY           SKY/WX    TMP DP  RH WIND       PRES   REMARKS
ALGONA *       CLEAR     41  41 100 S16       29.61F
CLARION *      CLEAR     41  41 100 S14       29.64F
ESTHERVILLE    MOCLDY    37  36  96 S16       29.57S FOG     WCI  28
6HR MIN TEMP:  34; 6HR MAX TEMP:  39;

FORT DODGE *   CLOUDY    46  39  76 S9        29.64F
MASON CITY     PTCLDY    36  36 100 S10       29.66F FOG     WCI  28
6HR MIN TEMP:  35; 6HR MAX TEMP:  43;

FOREST CITY *  CLEAR     36  36 100 SE6       29.63F FOG     WCI  31
IOWA FALLS *   CLOUDY    50  46  87 S14       29.67F
$$

IAZ007>011-017>019-026>030-037>042-050>054-066-230100-
   NORTHEAST IOWA

CITY           SKY/WX    TMP DP  RH WIND       PRES   REMARKS
CEDAR RAPIDS   CLOUDY    52  51  97 S14       29.75F
6HR MIN TEMP:  49; 6HR MAX TEMP:  52;

CHARLES CITY * CLEAR     41  39  93 S10       29.68F
CLINTON *      CLOUDY    52  48  87 S13       29.83R
DECORAH *      FOG       37  37 100 SE7       29.69F VSB 0   WCI  32
DUBUQUE        CLOUDY    46  46 100 SW8       29.76S FOG
6HR MIN TEMP:  41; 6HR MAX TEMP:  48;

MONTICELLO *   CLOUDY    48  48 100 S9        29.76S
OELWEIN *      CLOUDY    46  45  93 S13       29.72F
WATERLOO       CLOUDY    50  46  86 S13       29.71S
6HR MIN TEMP:  41; 6HR MAX TEMP:  53;

$$

IAZ064-065-067-068-078-230100-
   EAST CENTRAL IOWA

CITY           SKY/WX    TMP DP  RH WIND       PRES   REMARKS
DAVENPORT      CLOUDY    54  49  83 S16G25    29.81S
6HR MIN TEMP:  51; 6HR MAX TEMP:  54;

IOWA CITY      CLOUDY    53  51  93 S14       29.79S
6HR MIN TEMP:  47; 6HR MAX TEMP:  54;

MT. PLEASANT * CLOUDY    53  49  85 S9        29.80F
MUSCATINE *    CLOUDY    54  50  87 S8        29.81S
QUAD CITIES    CLOUDY    55  49  80 S12       29.81R
6HR MIN TEMP:  51; 6HR MAX TEMP:  56;

$$

IAZ062-063-075>077-085>089-095>099-230100-
   SOUTHEAST IOWA

CITY           SKY/WX    TMP DP  RH WIND       PRES   REMARKS
BURLINGTON     CLOUDY    56  50  80 S12       29.82S
6HR MIN TEMP:  54; 6HR MAX TEMP:  56;

FAIRFIELD *    CLOUDY    55  50  82 S13       29.78F
FORT MADISON *   N/A     57  52  82 S10       29.83S
KEOKUK *       CLEAR     57  50  77 S9G17     29.82S
OSKALOOSA *    CLOUDY    54  51  92 S13       29.76F
CENTERVILLE *  CLOUDY    55  55 100 S7        29.77F
OTTUMWA        CLOUDY    55  51  86 S12       29.76F
6HR MIN TEMP:  50; 6HR MAX TEMP:  57;

WASHINGTON *   CLOUDY    55  55 100 S15       29.78F
$$

ABBREVIATIONS USED IN REMARKS
   TC - TEMPERATURES IN CELSIUS
  WCI - WIND CHILL INDEX
   HX - HEAT INDEX
  VSB - VISIBILITY
$$



USA.gov is the U.S. government's official web portal to all federal, state and local government web resources and services.